Location: Estes Par
(40.3770°N, 105.5210°W)
Time: 10:08:03
(UTC-06:00)

Vanguard 2 Rocket - All Passes

Search period start: 20 April 2018 00:00
Search period end: 30 April 2018 00:00
Orbit: 553 x 3328 km, 32.9° (Epoch: 20 April)

Date Brightness Start Highest point End Pass type
(mag) Time Alt. Az. Time Alt. Az. Time Alt. Az.
20 Apr - 03:01:43 10° S 03:12:54 23° SE 03:26:12 10° E visible
20 Apr - 05:11:17 10° SW 05:28:02 50° SSE 05:46:38 10° E visible
20 Apr - 07:25:57 10° WSW 07:45:41 68° S 08:03:09 10° E daylight
20 Apr - 09:43:39 10° W 10:03:23 62° SSW 10:17:24 10° ESE daylight
20 Apr - 12:03:26 10° W 12:18:27 34° SW 12:28:36 10° SSE daylight
21 Apr - 02:06:11 10° SSE 02:12:49 14° SE 02:20:20 10° ESE visible
21 Apr - 04:11:57 10° SSW 04:26:44 41° SE 04:44:38 10° E visible
21 Apr - 06:25:02 10° WSW 06:43:37 64° SSE 07:02:21 10° E daylight
21 Apr - 08:41:36 10° W 09:01:45 67° S 09:17:38 10° ESE daylight
21 Apr - 11:00:26 10° W 11:18:08 45° SSW 11:30:14 10° SE daylight
21 Apr - 13:23:21 10° W 13:31:12 16° SW 13:37:29 10° SSW daylight
22 Apr - 03:13:26 10° SSW 03:25:57 31° SE 03:41:51 10° E visible
22 Apr - 05:24:44 10° SW 05:41:42 58° SSE 06:01:01 10° E visible
22 Apr - 07:40:02 10° WSW 07:59:45 69° S 08:17:22 10° ESE daylight
22 Apr - 09:57:54 10° W 10:17:12 55° SSW 10:31:14 10° SE daylight
22 Apr - 12:18:30 10° W 12:31:37 26° SW 12:41:10 10° S daylight
23 Apr - 02:16:02 10° S 02:25:44 22° SE 02:37:57 10° E visible
23 Apr - 04:25:04 10° SW 04:40:10 50° SSE 04:59:09 10° E visible
23 Apr - 06:38:59 10° WSW 06:57:37 68° S 07:16:36 10° E daylight
23 Apr - 08:55:48 10° W 09:15:42 62° SSW 09:31:39 10° ESE daylight
23 Apr - 11:15:01 10° W 11:31:30 36° SW 11:43:22 10° SSE daylight
24 Apr - 01:21:13 10° SE 01:25:59 12° SE 01:31:23 10° ESE visible
24 Apr - 03:26:05 10° SSW 03:39:10 40° SE 03:56:43 10° E visible
24 Apr - 05:38:31 10° WSW 05:55:34 64° SSE 06:15:17 10° E visible
24 Apr - 07:54:13 10° W 08:13:48 67° S 08:31:29 10° ESE daylight
24 Apr - 10:12:16 10° W 10:30:47 47° SSW 10:44:43 10° SE daylight
24 Apr - 12:34:39 10° W 12:44:35 18° SW 12:52:35 10° SSW daylight
25 Apr - 02:27:53 10° SSW 02:38:45 30° SE 02:53:35 10° E visible
25 Apr - 04:38:38 10° SW 04:53:50 58° SSE 05:13:29 10° E visible
25 Apr - 06:53:07 10° W 07:11:39 69° S 07:30:46 10° ESE daylight
25 Apr - 09:10:05 10° W 09:29:30 56° SSW 09:45:23 10° SE daylight
25 Apr - 11:30:04 10° W 11:44:38 28° SW 11:55:50 10° S daylight
26 Apr - 01:30:49 10° S 01:38:53 20° SE 01:49:25 10° E visible
26 Apr - 03:39:20 10° SW 03:52:36 49° SSE 04:11:12 10° E visible
26 Apr - 05:52:32 10° WSW 06:09:33 68° S 06:29:30 10° E daylight
26 Apr - 08:08:28 10° W 08:27:45 62° SSW 08:45:25 10° ESE daylight
26 Apr - 10:26:52 10° W 10:44:08 38° SW 10:57:44 10° SSE daylight
26 Apr - 12:55:00 10° WSW 12:57:27 10° SW 12:59:47 10° SW daylight
27 Apr - 00:37:54 10° SE 00:39:29 10° SE 00:41:09 10° ESE visible
27 Apr - 02:40:39 10° SSW 02:51:58 39° SE 03:08:26 10° E visible
27 Apr - 04:52:30 10° WSW 05:07:42 64° SSE 05:27:44 10° E visible
27 Apr - 07:07:20 10° W 07:25:43 67° S 07:44:49 10° ESE daylight
27 Apr - 09:24:29 10° W 09:43:05 47° SSW 09:58:45 10° SE daylight
27 Apr - 11:46:09 10° W 11:57:37 19° SW 12:07:09 10° S daylight
28 Apr - 01:42:44 10° S 01:51:55 28° SE 02:05:06 10° E visible
28 Apr - 03:52:59 10° SW 04:06:16 57° SSE 04:25:30 10° E visible
28 Apr - 06:06:43 10° W 06:23:36 69° S 06:43:38 10° ESE daylight
28 Apr - 08:22:46 10° W 08:41:32 55° SSW 08:59:03 10° SE daylight
28 Apr - 10:41:57 10° W 10:57:18 29° SW 11:10:02 10° S daylight
29 Apr - 00:46:01 10° SSE 00:52:25 17° SE 01:00:47 10° E visible
29 Apr - 02:54:00 10° SW 03:05:25 48° SSE 03:22:54 10° E visible
29 Apr - 05:06:35 10° WSW 05:21:41 67° S 05:41:54 10° E visible
29 Apr - 07:21:37 10° W 07:39:40 62° SSW 07:58:40 10° ESE daylight
29 Apr - 09:39:08 10° W 09:56:28 38° SW 10:11:37 10° SSE daylight
29 Apr - 12:05:21 10° WSW 12:10:32 12° SW 12:15:20 10° SW daylight
